{"data":{"norad_id":56476,"intl_designator":"2023-064AE","name":"STARLINK-5545","alt_names":[],"object_type":"PAYLOAD","status":"ACTIVE","operator":null,"country":"US","launch_date":"2023-05-10","launch_site_code":"AFWTR","launch_vehicle":null,"mission":null,"orbit_class":"UNKNOWN","rcs_meters":null,"size_class":null,"mass_kg":null,"dimensions":null,"purposes":["comms"],"wikipedia_slug":null,"has_3d_model":false,"image_url":null,"decayed_at":null,"tle_current":{"epoch":"2026-09-20T22:00:03.000096Z","epoch_age_seconds":75990,"freshness":"FRESH","line1":"1 56476U 23064AE  26263.91670139 -.00003673  00000+0 -24821-3 0  9998","line2":"2 56476  70.0012 352.1964 0005171 270.8619  72.6993 15.05470757  5762","mean_motion":15.05470757,"eccentricity":0.0005171,"inclination_deg":70.0012,"raan_deg":352.1964,"arg_perigee_deg":270.8619,"mean_anomaly_deg":72.6993,"bstar":-0.00024821,"rev_number":576,"period_min":95.651143890004,"perigee_km":546.47844752583,"apogee_km":553.64358991679,"semimajor_km":6928.1980187213,"source":"CELESTRAK","updated_at":"2026-09-21T09:00:33.446526Z"}}}